When you browse on this site, cookies collect data to enhance your experience and personalize the content and advertising you see.
Visit our Privacy Policy to learn more. By continuing to use the site, you agree to this use of cookies and data.
  • en France
  • Liste des pays
  • À 7 jours
  • Température de l'eau
  • Carte météo
  • Widgets météo
  • user-avatar
    Se connecter

    Météo par heure à Francistown

    Ce jour, 7 Décembre, Samedi

    Heure Température Précipitation Vent Pression Humidité
    00:00 +24°C° 0.5 mm 1 m/s 675 mmHg 70%
    01:00 +24°C° 0.5 mm 2 m/s 674 mmHg 71%
    02:00 +24°C° 0 mm 2 m/s 674 mmHg 72%
    03:00 +23°C° 0.5 mm 2 m/s 674 mmHg 74%
    04:00 +23°C° 0.5 mm 2 m/s 674 mmHg 77%
    05:00 +23°C° 0.5 mm 2 m/s 674 mmHg 79%
    06:00 +24°C° 0.1 mm 2 m/s 674 mmHg 75%
    07:00 +25°C° 0.1 mm 2 m/s 675 mmHg 70%
    08:00 +26°C° 0.1 mm 2 m/s 675 mmHg 65%
    09:00 +28°C° 0 mm 3 m/s 675 mmHg 56%
    10:00 +30°C° 0 mm 4 m/s 675 mmHg 47%
    11:00 +34°C° 0 mm 4 m/s 675 mmHg 39%
    12:00 +34°C° 0 mm 4 m/s 675 mmHg 36%
    13:00 +35°C° 0 mm 4 m/s 674 mmHg 33%
    14:00 +36°C° 0 mm 4 m/s 674 mmHg 31%
    15:00 +36°C° 0 mm 4 m/s 673 mmHg 31%
    16:00 +35°C° 0 mm 3 m/s 673 mmHg 31%
    17:00 +35°C° 0 mm 3 m/s 672 mmHg 31%
    18:00 +34°C° 0 mm 3 m/s 673 mmHg 34%
    19:00 +32°C° 0 mm 2 m/s 673 mmHg 36%
    20:00 +31°C° 0 mm 2 m/s 673 mmHg 39%
    21:00 +30°C° 0.1 mm 2 m/s 673 mmHg 44%
    22:00 +29°C° 0.1 mm 3 m/s 674 mmHg 50%
    23:00 +28°C° 0.1 mm 4 m/s 674 mmHg 55%

    Demain, 8 Décembre, Dimanche

    Heure Température Précipitation Vent Pression Humidité
    00:00 +26°C° 0.5 mm 4 m/s 673 mmHg 64%
    01:00 +25°C° 0.5 mm 4 m/s 673 mmHg 72%
    02:00 +23°C° 0.5 mm 4 m/s 672 mmHg 80%
    03:00 +22°C° 0.3 mm 4 m/s 673 mmHg 81%
    04:00 +22°C° 0.3 mm 4 m/s 673 mmHg 82%
    05:00 +22°C° 0.3 mm 4 m/s 673 mmHg 84%
    06:00 +23°C° 0.3 mm 4 m/s 673 mmHg 77%
    07:00 +23°C° 0.3 mm 4 m/s 674 mmHg 71%
    08:00 +25°C° 0.3 mm 4 m/s 675 mmHg 65%
    09:00 +27°C° 0 mm 4 m/s 674 mmHg 58%
    10:00 +29°C° 0 mm 4 m/s 674 mmHg 51%
    11:00 +31°C° 0 mm 3 m/s 674 mmHg 45%
    12:00 +33°C° 0 mm 3 m/s 674 mmHg 41%
    13:00 +34°C° 0 mm 2 m/s 673 mmHg 37%
    14:00 +35°C° 0 mm 1 m/s 673 mmHg 34%
    15:00 +34°C° 0.9 mm 2 m/s 672 mmHg 41%
    16:00 +31°C° 0.9 mm 2 m/s 671 mmHg 48%
    17:00 +29°C° 0.9 mm 3 m/s 671 mmHg 55%
    18:00 +27°C° 5.9 mm 4 m/s 671 mmHg 65%
    19:00 +25°C° 5.9 mm 5 m/s 671 mmHg 74%
    20:00 +23°C° 5.9 mm 6 m/s 672 mmHg 83%
    21:00 +23°C° 1.2 mm 5 m/s 672 mmHg 83%
    22:00 +23°C° 1.2 mm 5 m/s 673 mmHg 84%
    23:00 +23°C° 1.2 mm 4 m/s 673 mmHg 84%

    Après-demain, 9 Décembre, Lundi

    Heure Température Précipitation Vent Pression Humidité
    00:00 +22°C° 1.2 mm 3 m/s 673 mmHg 85%
    01:00 +23°C° 1.2 mm 2 m/s 673 mmHg 86%
    02:00 +23°C° 1.2 mm 1 m/s 673 mmHg 88%
    03:00 +23°C° 2.4 mm 2 m/s 673 mmHg 88%
    04:00 +21°C° 2.4 mm 3 m/s 673 mmHg 88%
    05:00 +21°C° 2.4 mm 4 m/s 673 mmHg 88%
    06:00 +21°C° 0.3 mm 4 m/s 673 mmHg 85%
    07:00 +21°C° 0.3 mm 5 m/s 673 mmHg 82%
    08:00 +21°C° 0.3 mm 5 m/s 673 mmHg 78%
    09:00 +21°C° 0.8 mm 4 m/s 673 mmHg 79%
    10:00 +21°C° 0.8 mm 3 m/s 673 mmHg 80%
    11:00 +22°C° 0.8 mm 3 m/s 673 mmHg 80%
    12:00 +21°C° 2.3 mm 2 m/s 673 mmHg 84%
    13:00 +21°C° 2.3 mm 2 m/s 673 mmHg 87%
    14:00 +21°C° 2.3 mm 2 m/s 673 mmHg 91%
    15:00 +21°C° 3 mm 3 m/s 672 mmHg 91%
    16:00 +21°C° 3 mm 4 m/s 672 mmHg 92%
    17:00 +21°C° 3 mm 4 m/s 672 mmHg 92%
    18:00 +20°C° 0 mm 4 m/s 672 mmHg 92%
    19:00 +20°C° 0 mm 3 m/s 672 mmHg 92%
    20:00 +20°C° 0 mm 3 m/s 673 mmHg 92%
    21:00 +20°C° 0.7 mm 3 m/s 673 mmHg 92%
    22:00 +20°C° 0.7 mm 3 m/s 673 mmHg 91%
    23:00 +20°C° 0.7 mm 4 m/s 674 mmHg 91%

    10 Décembre, Mardi

    Heure Température Précipitation Vent Pression Humidité
    00:00 +20°C° 0.5 mm 3 m/s 673 mmHg 92%
    01:00 +20°C° 0.5 mm 3 m/s 673 mmHg 93%
    02:00 +20°C° 0.5 mm 3 m/s 672 mmHg 94%
    03:00 +20°C° 0 mm 3 m/s 673 mmHg 94%
    04:00 +20°C° 0 mm 3 m/s 673 mmHg 93%
    05:00 +20°C° 0 mm 3 m/s 673 mmHg 93%
    06:00 +20°C° 0 mm 3 m/s 673 mmHg 90%
    07:00 +21°C° 0 mm 3 m/s 673 mmHg 86%
    08:00 +22°C° 0 mm 3 m/s 674 mmHg 83%
    09:00 +25°C° 0 mm 3 m/s 674 mmHg 74%
    10:00 +26°C° 0 mm 3 m/s 674 mmHg 65%
    11:00 +28°C° 0 mm 3 m/s 674 mmHg 56%
    12:00 +29°C° 0 mm 3 m/s 674 mmHg 52%
    13:00 +30°C° 0 mm 4 m/s 673 mmHg 48%
    14:00 +30°C° 0 mm 4 m/s 673 mmHg 45%
    15:00 +30°C° 0.1 mm 4 m/s 673 mmHg 47%
    16:00 +29°C° 0.1 mm 4 m/s 672 mmHg 49%
    17:00 +29°C° 0.1 mm 5 m/s 672 mmHg 51%
    18:00 +27°C° 0.1 mm 4 m/s 672 mmHg 58%
    19:00 +26°C° 0.1 mm 4 m/s 673 mmHg 65%
    20:00 +24°C° 0.1 mm 3 m/s 673 mmHg 73%
    21:00 +24°C° 0 mm 3 m/s 673 mmHg 76%
    22:00 +22°C° 0 mm 3 m/s 673 mmHg 79%
    23:00 +23°C° 0 mm 2 m/s 674 mmHg 82%

    11 Décembre, Mercredi

    Heure Température Précipitation Vent Pression Humidité
    00:00 +21°C° 0 mm 2 m/s 673 mmHg 82%
    01:00 +21°C° 0 mm 2 m/s 673 mmHg 83%
    02:00 +22°C° 0 mm 1 m/s 673 mmHg 84%
    03:00 +21°C° 0 mm 1 m/s 673 mmHg 85%
    04:00 +21°C° 0 mm 1 m/s 673 mmHg 86%
    05:00 +20°C° 0 mm 2 m/s 673 mmHg 88%
    06:00 +21°C° 0 mm 2 m/s 673 mmHg 79%
    07:00 +24°C° 0 mm 1 m/s 674 mmHg 70%
    08:00 +25°C° 0 mm 1 m/s 674 mmHg 62%
    09:00 +27°C° 0 mm 2 m/s 675 mmHg 52%
    10:00 +29°C° 0 mm 2 m/s 675 mmHg 41%
    11:00 +31°C° 0 mm 3 m/s 675 mmHg 31%
    12:00 +33°C° 0 mm 3 m/s 674 mmHg 29%
    13:00 +34°C° 0 mm 4 m/s 674 mmHg 26%
    14:00 +35°C° 0 mm 4 m/s 674 mmHg 24%
    15:00 +34°C° 0 mm 4 m/s 673 mmHg 25%
    16:00 +34°C° 0 mm 4 m/s 673 mmHg 26%
    17:00 +33°C° 0 mm 3 m/s 673 mmHg 27%
    18:00 +31°C° 0 mm 3 m/s 673 mmHg 31%
    19:00 +29°C° 0 mm 3 m/s 673 mmHg 35%
    20:00 +28°C° 0 mm 2 m/s 673 mmHg 39%
    21:00 +27°C° 0 mm 2 m/s 673 mmHg 41%
    22:00 +26°C° 0 mm 2 m/s 674 mmHg 44%
    23:00 +25°C° 0 mm 2 m/s 674 mmHg 46%

    12 Décembre, Jeudi

    Heure Température Précipitation Vent Pression Humidité
    00:00 +25°C° 0 mm 2 m/s 674 mmHg 47%
    01:00 +25°C° 0 mm 3 m/s 673 mmHg 48%
    02:00 +24°C° 0 mm 3 m/s 673 mmHg 49%
    03:00 +24°C° 0 mm 3 m/s 673 mmHg 49%
    04:00 +24°C° 0 mm 2 m/s 673 mmHg 49%
    05:00 +24°C° 0 mm 2 m/s 673 mmHg 49%
    06:00 +26°C° 0 mm 2 m/s 674 mmHg 45%
    07:00 +28°C° 0 mm 2 m/s 675 mmHg 40%
    08:00 +30°C° 0 mm 2 m/s 675 mmHg 36%
    09:00 +31°C° 0 mm 2 m/s 676 mmHg 31%
    10:00 +34°C° 0 mm 2 m/s 676 mmHg 26%
    11:00 +36°C° 0 mm 2 m/s 676 mmHg 21%
    12:00 +36°C° 0 mm 2 m/s 675 mmHg 20%
    13:00 +36°C° 0 mm 2 m/s 675 mmHg 19%
    14:00 +37°C° 0 mm 3 m/s 674 mmHg 18%
    15:00 +36°C° 0 mm 3 m/s 674 mmHg 20%
    16:00 +36°C° 0 mm 3 m/s 674 mmHg 22%
    17:00 +35°C° 0 mm 3 m/s 674 mmHg 24%
    18:00 +33°C° 0 mm 3 m/s 674 mmHg 27%
    19:00 +31°C° 0 mm 2 m/s 674 mmHg 30%
    20:00 +29°C° 0 mm 2 m/s 674 mmHg 34%
    21:00 +29°C° 0 mm 2 m/s 674 mmHg 36%
    22:00 +29°C° 0 mm 2 m/s 675 mmHg 38%
    23:00 +28°C° 0 mm 3 m/s 675 mmHg 40%
    Voir plus